Volver al catálogo

STARLINK-34751

ActivoComunicacionesVLEO
NORAD 65338·PAYLOAD·🇺🇸 United States

Lanzado Aug 27, 2025 desde Cape Canaveral Space Force Station

Loading…

Próximos Pases (próximas 24 horas)

TLE

ActualizadoSource: CelesTrak SupGP

Época: Sep 15, 2026, 03:42 UTC

1 65338C 25189R   26258.15465278  .00008284  00000+0  26643-3 0  2584
2 65338  53.1600  45.2785 0001118  88.2081 309.3169 15.31692356    14

Sigue STARLINK-34751 en tiempo real con AllMySat

Download on the App Store